Flag for Vietnam Weather past 2 weeks in Ho Chi Minh, Vietnam

Now
90 °F

Partly sunny.


Feels Like: 95 °F
Forecast: 76 / 93 °F
Wind: 5 mph from South

Location: Ho Chi Minh

Current Time: Mar 4, 2015 at 2:59:19 PM

Latest Report: Mar 4, 2015 at 2:30 PM


Visibility: N/A

Pressure: 29.80 "Hg

Humidity: 52%

Dew point: 70 °F

Location of Ho Chi MinhLocation

Historic Weather in Ho Chi Minh — Graph

°F

Ho Chi Minh temperature yesterday

Maximum temperature yesterday: 90 °F (at 12:00 PM)
Minimum temperature yesterday: 77 °F (at 1:30 AM)
Average temperature yesterday: 82 °F

Past Weeks' High & Low Weather Summary

 TemperatureHumidityPressure
High97 °F (Mar 1, 1:30 PM)89% (Feb 27, 4:30 AM)29.98 "Hg (Feb 27, 4:30 AM)
Low72 °F (Feb 18, 4:00 AM)36% (Feb 18, 2:00 PM)29.71 "Hg (Mar 3, 4:00 PM)
Average82 °F65%29.86 "Hg
* Reported Feb 17 1:00 PM — Mar 4 1:30 PM, Ho Chi Minh, Weather by CustomWeather, © 2015

Note: Actual official high and low records may vary slightly from our data, if they occured in-between our weather recording intervals... More about our weather records

Advertising

Ho Chi Minh weather history for previous 24 hours

 ConditionsComfort  
Time TempWeatherWind HumidityBarometerVisibility
1:30 PM
Wed, Mar 4
90 °FPartly sunny.6 mph49%29.83 "HgN/A
1:00 PM90 °FPartly sunny.3 mph49%29.83 "HgN/A
12:30 PM88 °FPartly sunny.5 mph55%29.86 "HgN/A
12:00 PM88 °FPartly sunny.3 mph55%29.86 "HgN/A
11:30 AM90 °FPartly sunny.5 mph49%29.89 "HgN/A
11:00 AM88 °FPartly sunny.5 mph52%29.89 "HgN/A
10:30 AM88 °FScattered clouds.5 mph52%29.92 "HgN/A
10:00 AM84 °FScattered clouds.6 mph62%29.92 "HgN/A
9:30 AM86 °FScattered clouds.5 mph59%29.92 "HgN/A
9:00 AM84 °FScattered clouds.5 mph58%29.92 "HgN/A
8:30 AM82 °FScattered clouds.5 mph66%29.92 "HgN/A
8:00 AM81 °FScattered clouds.5 mph70%29.89 "HgN/A
7:30 AM81 °FScattered clouds.3 mph74%29.89 "HgN/A
7:00 AM79 °FScattered clouds.2 mph79%29.89 "HgN/A
6:30 AM79 °FScattered clouds.5 mph79%29.86 "HgN/A
6:00 AM79 °FPassing clouds.2 mph74%29.86 "HgN/A
5:30 AM79 °FPassing clouds.5 mph79%29.83 "HgN/A
5:00 AM79 °FPassing clouds.6 mph79%29.83 "HgN/A
4:30 AM79 °FPassing clouds.7 mph79%29.80 "HgN/A
4:00 AM79 °FPassing clouds.6 mph79%29.80 "HgN/A
3:30 AM79 °FPassing clouds.3 mph79%29.80 "HgN/A
2:30 AM79 °FPassing clouds.8 mph79%29.80 "HgN/A
2:00 AM79 °FPassing clouds.6 mph79%29.80 "HgN/A
1:30 AM79 °FPassing clouds.8 mph79%29.80 "HgN/A
1:00 AM79 °FPassing clouds.9 mph79%29.83 "HgN/A
12:30 AM79 °FPassing clouds.10 mph79%29.83 "HgN/A
12:00 AM79 °FPassing clouds.8 mph79%29.83 "HgN/A
11:30 PM
Tue, Mar 3
79 °FPassing clouds.8 mph79%29.83 "HgN/A
11:00 PM79 °FPassing clouds.7 mph79%29.83 "HgN/A
10:30 PM79 °FPassing clouds.8 mph79%29.83 "HgN/A
10:00 PM79 °FPassing clouds.10 mph79%29.83 "HgN/A
9:30 PM81 °FPassing clouds.10 mph74%29.83 "HgN/A
9:00 PM81 °FPassing clouds.9 mph70%29.83 "HgN/A
8:30 PM81 °FPassing clouds.9 mph70%29.80 "HgN/A
8:00 PM81 °FPassing clouds.9 mph70%29.80 "HgN/A
7:30 PM81 °FPassing clouds.9 mph70%29.80 "HgN/A
7:00 PM81 °FPassing clouds.9 mph70%29.77 "HgN/A
6:30 PM82 °FPassing clouds.9 mph66%29.77 "HgN/A
6:00 PM84 °FScattered clouds.9 mph62%29.74 "HgN/A
5:30 PM86 °FPassing clouds.9 mph59%29.74 "HgN/A
5:00 PM88 °FPassing clouds.8 mph55%29.74 "HgN/A
4:30 PM88 °FScattered clouds.8 mph55%29.71 "HgN/A
4:00 PM88 °FScattered clouds.9 mph52%29.71 "HgN/A
3:30 PM90 °FScattered clouds.7 mph49%29.74 "HgN/A
3:00 PM90 °FScattered clouds.7 mph49%29.74 "HgN/A
2:30 PM90 °FPartly sunny.6 mph46%29.77 "HgN/A
2:00 PM90 °FPartly sunny.6 mph46%29.77 "HgN/A
Weather by CustomWeather, © 2015

See weather overviewHow to use our weather pages